GFO

operational
NORAD ID: 25157 Int'l Des: 1998-007 Owner: USN Country: US
LEOCIRCULARRETROGRADE

GFOについて

説明を読み込み中...

リアルタイム位置

3D地球を読み込み中...

次回通過

高度履歴

Altitude vs Time

uPlot chart will show altitude changes over time

軌道要素

1 25157U 98007A 26071.29362632 .00077445 00000-0 70125-3 0 9998
2 25157 108.0179 273.9944 0047727 188.2946 171.7478 15.66255234511259
Epoch: Mar 12, 2026 • Age: 23 hours

現在のステータス

高度 399.1 km
速度 7.66 km/s
衛星直下点 49.20°N, 104.02°E
打ち上げ日 Feb 10, 1998
運用期間 28 years
タイプ other

技術仕様

分類 Payload
質量 365.00 kg
乾燥質量 300.00 kg
総質量 365.00 kg
長さ 2.70 m
直径 1.00 m
スパン 2.70 m
形状 Cyl + Dish + Pan
製造者 BALL
バスタイプ BCP-2000/Tchstar
フェーズステータス In Orbit
所有者/国 USN/US

大規模コンステレーション

Loading constellations...